DateTimeUTC,F1_A11,F1_S11,BsB_S11,BsG_S11,BsR_S11,BbsB_S11,BbsG_S11,BbsR_S11,BaB_A11,BaG_A11,BaR_A11,Tu_S11,T_S11,Uu_S11,U_S11,P_S11,T1_A11
2021-03-23T13:00:00Z,00000200,21000000,,,,,,,0000.08,0000.04,0000.18,16.5,23.9,,00.0,0626.4,31.0
2021-03-23T13:01:00Z,00000200,21000000,,,,,,,-000.27,-000.43,-000.00,16.5,23.9,,00.0,0626.5,31.0
2021-03-23T13:02:00Z,00000200,21000000,,,,,,,-000.01,0000.09,-000.23,16.5,23.9,,00.0,0626.5,31.0
2021-03-23T13:03:00Z,00000200,61000000,,,,,,,0000.10,0000.21,0000.62,16.5,24.0,,00.0,0626.5,31.0
2021-03-23T13:04:00Z,00000200,41000000,0001.59,0000.54,0000.22,0000.28,0000.19,0000.16,0000.34,0000.05,-000.05,16.9,23.9,,00.0,0627.4,31.0
2021-03-23T13:05:00Z,00000200,01000000,0001.20,0000.71,0000.12,0000.61,0000.07,0000.18,0000.18,-000.07,0000.07,17.0,23.9,,00.0,0627.4,31.0
2021-03-23T13:06:00Z,00000200,01000000,0000.60,0000.82,0000.42,0000.44,0000.19,0000.18,0000.28,0000.86,0000.08,17.0,23.9,,00.0,0627.4,31.0
2021-03-23T13:07:00Z,00000200,01000000,0001.37,0000.69,0000.52,0000.06,0000.29,0000.12,0000.22,-000.28,0000.21,16.9,23.9,,00.0,0627.4,31.0
2021-03-23T13:08:00Z,00000200,01000000,0000.81,0000.91,0000.34,0000.37,-000.03,-000.06,0000.09,-000.10,-000.29,16.8,23.8,,00.0,0627.4,30.9
2021-03-23T13:09:00Z,00000200,01000000,0001.43,0000.75,0000.59,0000.57,0000.09,0000.11,0000.37,0000.69,0000.30,16.8,23.8,,00.0,0627.4,30.9
2021-03-23T13:10:00Z,00000200,01000000,0001.41,0000.74,0000.53,0000.65,-000.03,0000.01,0000.82,0000.74,0000.96,16.8,23.8,,00.0,0627.4,30.9
2021-03-23T13:11:00Z,00000200,01000000,0000.96,0000.54,0000.18,0000.62,-000.05,-000.12,0000.52,0000.29,0000.31,16.8,23.8,,00.0,0627.4,30.9
2021-03-23T13:12:00Z,00000200,01000000,0001.22,0000.76,0000.62,0000.29,-000.05,0000.31,0000.48,0000.52,0000.31,16.8,23.8,,00.0,0627.4,30.9
2021-03-23T13:13:00Z,00000200,01000000,0001.39,0000.66,0000.38,0000.38,0000.04,0000.12,0000.05,-000.12,-000.02,16.8,23.8,,00.0,0627.4,30.9
2021-03-23T13:14:00Z,00000200,01000000,0000.64,0000.73,0000.47,0000.20,0000.31,-000.02,0000.30,0000.10,-000.10,16.8,23.8,,00.0,0627.4,30.9
2021-03-23T13:15:00Z,00000200,01000000,0000.62,0000.91,0000.55,0000.17,0000.10,0000.16,0000.27,0000.61,0000.49,16.7,23.8,,00.0,0627.4,30.9
2021-03-23T13:16:00Z,00000200,01000000,0001.15,0000.97,0000.32,0000.35,0000.15,-000.02,0000.49,0000.23,-000.02,16.7,23.7,,00.0,0627.4,30.9
2021-03-23T13:17:00Z,00000200,01000000,0000.58,0000.68,0000.33,0000.46,0000.07,-000.06,0000.24,0000.32,-000.01,16.6,23.7,,00.0,0627.4,30.9
2021-03-23T13:18:00Z,00000200,01000000,0001.04,0000.67,0000.59,-000.20,0000.09,0000.03,0000.12,0000.15,0000.62,16.6,23.7,,00.0,0627.4,30.9
2021-03-23T13:19:00Z,00000200,01000000,0001.04,0000.82,0000.39,0000.10,0000.15,0000.37,0000.31,-000.09,-000.05,16.5,23.7,,00.0,0627.4,30.9
2021-03-23T13:20:00Z,00000200,01000000,0001.25,0000.82,0000.38,0000.37,0000.14,0000.12,0000.56,0000.60,0000.08,16.5,23.7,,00.0,0627.4,30.9
2021-03-23T13:21:00Z,00000200,01000000,0000.81,0000.62,0000.54,0000.04,0000.15,0000.18,0000.22,0000.11,0000.66,16.5,23.6,,00.0,0627.4,30.9
2021-03-23T13:22:00Z,00000200,01000000,0001.42,0000.64,0000.31,0000.32,-000.00,0000.02,0000.37,0000.31,-000.07,16.4,23.6,,00.0,0627.4,30.9
2021-03-23T13:23:00Z,00000200,01000000,0000.88,0000.46,0000.44,0000.25,0000.13,0000.34,0000.20,0000.25,0000.14,16.4,23.6,,00.0,0627.4,30.9
2021-03-23T13:24:00Z,00000200,01000000,0000.19,0000.40,0000.43,0000.28,-000.01,0000.06,0000.07,0000.38,0000.31,16.4,23.5,,00.0,0627.4,30.9
2021-03-23T13:25:00Z,00000200,01000000,0001.04,0000.60,0000.27,0000.25,-000.01,0000.14,0000.41,0000.37,0000.16,16.3,23.5,,00.0,0627.4,30.9
2021-03-23T13:26:00Z,00000200,01000000,0000.48,0000.69,0000.21,0000.53,0000.14,0000.20,0000.84,0000.59,0000.59,16.4,23.5,,00.0,0627.4,30.9
2021-03-23T13:27:00Z,00000200,01000000,0001.27,0000.61,0000.41,0000.57,0000.13,0000.11,0000.30,0000.24,-000.05,16.4,23.5,,00.0,0627.4,30.9
2021-03-23T13:28:00Z,00000200,01000000,0000.70,0000.58,0000.29,0000.10,0000.11,0000.17,0000.39,0000.37,0000.41,16.4,23.6,,00.0,0627.4,30.9
2021-03-23T13:29:00Z,00000200,01000000,0000.36,0000.85,0000.31,0000.08,0000.14,0000.15,0000.36,0000.03,0000.18,16.4,23.6,,00.0,0627.4,30.9
2021-03-23T13:30:00Z,00000200,01000000,0001.31,0000.44,0000.47,0000.57,-000.19,0000.06,0000.13,0000.46,0000.03,16.4,23.5,,00.0,0627.4,30.9
2021-03-23T13:31:00Z,00000200,01000000,0000.81,0000.67,0000.32,0000.40,0000.06,0000.13,0000.32,0000.32,0000.30,16.4,23.5,,00.0,0627.4,30.9
2021-03-23T13:32:00Z,00000200,01000000,0001.14,0000.71,0000.60,-000.01,0000.05,0000.19,0000.17,-000.14,0000.00,16.3,23.5,,00.0,0627.4,30.9
2021-03-23T13:33:00Z,00000200,01000000,0001.22,0000.60,0000.51,-000.07,0000.20,0000.18,0000.59,0000.39,0000.49,16.3,23.4,,00.0,0627.4,30.9
2021-03-23T13:34:00Z,00000200,01000000,0000.79,0000.75,0000.49,0000.07,-000.02,0000.00,0000.26,0000.69,0000.31,16.2,23.4,,00.0,0627.4,30.9
2021-03-23T13:35:00Z,00000200,01000000,0000.88,0000.90,0000.23,0000.49,0000.09,0000.07,0000.19,0000.06,0000.28,16.2,23.4,,00.0,0627.3,30.9
2021-03-23T13:36:00Z,00000200,01000000,0000.69,0000.36,0000.62,-000.11,-000.00,0000.14,0000.59,0000.19,0000.13,16.2,23.4,,00.0,0627.4,30.9
2021-03-23T13:37:00Z,00000200,01000000,0000.95,0000.67,0000.73,0000.19,0000.20,0000.20,0000.14,0000.53,0000.21,16.1,23.3,,00.0,0627.4,30.8
2021-03-23T13:38:00Z,00000200,01000000,0001.12,0000.28,0000.31,0000.11,0000.15,-000.06,0000.47,0000.20,0000.10,16.1,23.3,,00.0,0627.4,30.8
2021-03-23T13:39:00Z,00000200,01000000,0000.88,0000.57,0000.58,-000.02,-000.01,0000.09,0000.72,0000.92,0000.56,16.1,23.3,,00.0,0627.4,30.8
2021-03-23T13:40:00Z,00000200,01000000,0000.95,0000.51,0000.49,0000.19,0000.20,0000.08,0000.53,0000.41,0000.76,16.1,23.3,,00.0,0627.4,30.9
2021-03-23T13:41:00Z,00000200,01000000,0000.91,0000.88,0000.42,0000.58,0000.16,0000.21,0000.26,0000.06,-000.07,16.1,23.3,,00.0,0627.4,30.9
2021-03-23T13:42:00Z,00000200,01000000,0001.83,0000.35,0000.29,0000.34,-000.19,0000.16,0000.86,0000.66,0000.69,16.2,23.3,,00.0,0627.4,30.9
2021-03-23T13:43:00Z,00000200,01000000,0002.03,0000.42,0000.32,0000.62,-000.04,0000.13,0000.16,0000.33,-000.05,16.2,23.3,,00.0,0627.4,30.9
2021-03-23T13:44:00Z,00000200,01000000,0001.36,0000.43,0000.41,0000.50,-000.16,0000.01,0000.33,0000.61,0000.48,16.3,23.4,,00.0,0627.4,30.9
2021-03-23T13:45:00Z,00000200,01000000,0001.21,0000.86,0000.59,0000.15,0000.01,0000.19,0000.50,0000.12,0000.19,16.4,23.4,,00.0,0627.4,30.9
2021-03-23T13:46:00Z,00000200,01000000,0000.37,0000.33,0000.29,0000.28,0000.14,0000.31,0000.44,0000.65,0000.37,16.4,23.5,,00.0,0627.4,30.9
2021-03-23T13:47:00Z,00000200,01000000,0001.22,0000.70,0000.42,0000.24,0000.26,0000.12,0000.21,-000.18,-000.21,16.5,23.5,,00.0,0627.4,30.9
2021-03-23T13:48:00Z,00000200,01000000,0000.41,0000.58,0000.37,0000.23,-000.10,0000.15,0000.19,0000.37,0000.29,16.5,23.5,,00.0,0627.4,30.9
2021-03-23T13:49:00Z,00000200,01000000,0000.92,0000.52,0000.39,-000.04,0000.08,-000.08,0000.05,0000.20,0000.31,16.4,23.5,,00.0,0627.4,30.9
2021-03-23T13:50:00Z,00000200,01000000,0001.24,0000.68,0000.34,0000.01,-000.12,0000.08,0000.53,0000.33,-000.02,16.4,23.4,,00.0,0627.4,30.9
2021-03-23T13:51:00Z,00000200,01000000,0000.76,0000.78,0000.46,0000.32,-000.07,0000.30,0000.49,0000.48,0000.35,16.4,23.4,,00.0,0627.4,30.9
2021-03-23T13:52:00Z,00000200,01000000,0000.68,0000.65,0000.46,0000.71,0000.08,0000.20,0000.33,-000.10,0000.31,16.3,23.4,,00.0,0627.3,30.9
2021-03-23T13:53:00Z,00000200,01000000,0001.11,0000.78,0000.47,0000.59,0000.00,0000.27,0000.02,0000.47,0000.15,16.3,23.4,,00.0,0627.3,30.9
2021-03-23T13:54:00Z,00000200,01000000,0000.80,0000.77,0000.43,0000.20,0000.31,0000.13,0000.40,0000.20,0000.34,16.3,23.3,,00.0,0627.3,30.9
2021-03-23T13:55:00Z,00000200,01000000,0001.44,0000.48,0000.69,0000.33,0000.01,0000.14,0000.85,0000.73,0000.57,16.3,23.3,,00.0,0627.3,30.9
2021-03-23T13:56:00Z,00000200,01000000,0000.32,0000.87,0000.29,0000.47,0000.09,0000.30,0000.36,0000.51,0000.10,16.3,23.3,,00.0,0627.3,30.9
2021-03-23T13:57:00Z,00000200,41000000,,,,,,,-000.17,-000.03,-000.12,16.4,23.4,,00.0,0627.3,30.9
2021-03-23T13:58:00Z,00000200,61000000,,,,,,,0000.05,0000.04,0000.30,16.1,23.6,,00.0,0626.4,30.9
2021-03-23T13:59:00Z,00000200,21000000,,,,,,,0000.02,0000.05,0000.12,16.2,23.7,,00.0,0626.4,30.9
